Overton, Nevada Weather observations

Data are for observation ending at time listed.
 Day   Time    Ave.   Ave.  Ave.  Vector   Max.   Stn.    Total    Solar   Ave.  
  of    of     Air    Rel.  Wind   Wind    Wind   Baro.  Precip.   Rad.    Soil  
Year   Day     Temp.  Hum.  Speed  Dir.    Gust   Pres.                    Temp. 
2026   (PST)    F      %     mph   deg.    mph     mb.     in.     W/m2     F   
------------------------------------------------------------------------------
 121   14:50   87.9     7    6.5   314     11.0   965.9    0.00     754    92.7
 121   15:00   88.8     7   11.9   322     22.0   965.8    0.00     679    92.4
 121   15:10   88.5     7   10.1   300     20.6   965.7    0.00     366    92.1
 121   15:20   88.4     7   10.7   315     18.1   965.7    0.00     139    91.8
 121   15:30   88.2     7    7.5   303     14.8   965.7    0.00     413    91.2
 121   15:40   87.2     7    5.7   293     13.0   965.7    0.00     373    90.9
 121   15:50   87.5     7    5.6   309     14.3   965.7    0.00     493    90.6
 121   16:00   88.0     7    8.0   308     14.4   965.7    0.00     278    90.4
 121   16:10   87.8     7    8.4   329     16.0   965.5    0.00     415    90.1
 121   16:20   87.7     8    6.9    49     14.7   965.5    0.00     381    89.6
 121   16:30   87.6     8    9.6   354     15.4   965.3    0.00     343    89.3
 121   16:40   87.1     8    7.1    19     12.8   965.3    0.00     310    88.7
 121   16:50   87.4     7    5.5     7     12.1   965.3    0.00     229    88.5
 121   17:00   87.1     8    6.5   359     11.5   965.2    0.00     177    88.1
 121   17:10   86.7     7    7.8     7     12.6   965.2    0.00     206    87.7
 121   17:20   86.9     7    3.7    20      6.1   965.2    0.00     174    87.2
 121   17:30   86.5     8    4.1    30      7.7   965.2    0.00     143    87.0
 121   17:40   85.9     8    4.7    58      8.1   965.1    0.00     112    86.6
 121   17:50   85.5     8    4.4    47      9.3   965.0    0.00      85    86.1
 121   18:00   84.6     8    3.2    19      5.2   965.0    0.00      26    85.4
 121   18:10   83.9     9    3.3    30      7.5   964.9    0.00      18    84.8
 121   18:20   83.2     9    3.3    21      5.6   964.8    0.00      12    84.1
 121   18:30   82.1     9    4.3    21      7.1   964.8    0.00       5    83.5
 121   18:40   81.6     9    4.9    29      9.3   964.9    0.00       1    83.0
 121   18:50   81.4     8    6.6    30     11.6   964.9    0.00       0    82.7
 121   19:00   81.2     8    5.4    34      9.1   964.9    0.00       0    82.2
 121   19:10   80.9     8    4.6    37      9.1   965.0    0.00       0    81.7
 121   19:20   80.3     8    4.6    32      8.5   965.1    0.00       0    81.2
 121   19:30   79.7     8    4.2    21      7.4   965.2    0.00       0    80.7
 121   19:40   79.2     8    4.8    22      8.8   965.3    0.00       0    80.3
 121   19:50   78.8     8    4.1    14      6.5   965.4    0.00       0    80.0
 121   20:00   77.3     9    3.7   346      6.6   965.6    0.00       0    79.2
 121   20:10   76.2     9    2.1   316      3.2   965.8    0.00       0    78.5
 121   20:20   75.3     9    3.2   308      4.8   965.9    0.00       0    78.1
 121   20:30   74.4     9    3.4   294      5.2   966.0    0.00       0    77.5
 121   20:40   74.2     9    1.7   298      5.1   966.0    0.00       0    77.0
 121   20:50   73.7     9    1.2   335      4.6   966.0    0.00       0    76.4
 121   21:00   73.6     9    2.6   352      6.1   966.1    0.00       0    76.5
 121   21:10   74.2     9    2.4     6      6.1   966.1    0.00       0    76.4
 121   21:20   74.6     9    3.6   360      6.7   966.2    0.00       0    76.4
 121   21:30   75.0     9    4.4    20      7.8   966.3    0.00       0    76.3
 121   21:40   75.3     9    5.7     8     10.1   966.3    0.00       0    76.4
 121   21:50   75.8     9    6.2     2     13.0   966.4    0.00       0    76.4
 121   22:00   75.8     9    7.7    10     13.4   966.4    0.00       0    76.3
 121   22:10   75.3     9    7.5     1     12.1   966.5    0.00       0    76.0
 121   22:20   75.1     9    7.9     2     12.7   966.6    0.00       0    75.8
 121   22:30   74.4    10    8.0   360     11.7   966.7    0.00       0    75.4
 121   22:40   73.8    10    8.0   357     12.9   966.8    0.00       0    75.1
 121   22:50   73.3    10    6.8   357     10.4   966.8    0.00       0    74.7
 121   23:00   73.4    10    7.4     6     12.4   966.8    0.00       0    74.6
 121   23:10   73.9    10    8.1    15     13.4   966.8    0.00       0    74.7
 121   23:20   73.3    10    8.2     6     13.5   966.8    0.00       0    74.3
 121   23:30   72.7    10    7.7     1     13.5   966.8    0.00       0    74.0
 121   23:40   72.7    10    7.3     9     13.5   966.8    0.00       0    73.8
 121   23:50   72.2    11    7.4     7     13.0   966.8    0.00       0    73.5
 122    0:00   72.6    10    7.3    17     12.6   966.8    0.00       0    73.6
 122    0:10   72.8    11    6.9    17     11.5   966.9    0.00       0    73.5
 122    0:20   72.4    11    6.7    21     12.9   966.9    0.00       0    73.2
 122    0:30   72.3    11    6.9    17     13.4   966.8    0.00       0    73.0
 122    0:40   71.9    11    6.0    20     12.0   966.8    0.00       0    72.8
 122    0:50   71.4    11    3.6   322      8.0   966.9    0.00       0    72.4
 122    1:00   71.0    11    2.7   274      5.8   966.9    0.00       0    72.0
 122    1:10   70.5    11    2.8   306      6.1   966.9    0.00       0    71.7
 122    1:20   69.7    12    2.7   280      7.4   966.8    0.00       0    71.3
 122    1:30   70.5    12    4.0   302      8.1   966.7    0.00       0    71.4
 122    1:40   70.2    12    2.8   308      4.7   966.7    0.00       0    71.1
 122    1:50   70.3    12    2.7   318      7.5   966.7    0.00       0    71.1
 122    2:00   70.4    12    3.0    20      8.6   966.8    0.00       0    71.1
 122    2:10   71.7    12    6.7     0     13.7   966.8    0.00       0    71.6
 122    2:20   71.1    12    6.2   342     11.7   966.8    0.00       0    71.4
 122    2:30   70.2    12    2.0   278      4.2   966.9    0.00       0    70.8
 122    2:40   69.8    12    2.0   294      4.3   967.0    0.00       0    70.4
 122    2:50   68.4    13    3.3   350      5.2   966.9    0.00       0    69.8
 122    3:00   66.9    14    4.2     6      6.3   966.9    0.00       0    69.3
 122    3:10   65.3    15    3.7    15      6.1   966.8    0.00       0    68.7
 122    3:20   66.3    14    2.9     6      6.0   966.8    0.00       0    68.8
 122    3:30   65.4    14    2.2   255      4.1   966.8    0.00       0    68.5
 122    3:40   64.7    15    1.2   270      3.1   966.8    0.00       0    67.8
 122    3:50   62.3    17    2.3   304      4.7   966.8    0.00       0    67.1
 122    4:00   61.0    19    1.8   314      4.5   966.7    0.00       0    66.6
 122    4:10   61.1    18    1.7   325      4.1   966.7    0.00       0    66.4
 122    4:20   59.2    21    2.7   329      4.2   966.7    0.00       0    65.5
 122    4:30   58.5    21    2.3   305      4.4   966.7    0.00       0    65.4
 122    4:40   59.9    19    1.2   283      3.8   966.7    0.00       3    65.7
 122    4:50   59.2    20    1.8   271      4.2   966.8    0.00       9    65.2
 122    5:00   59.1    20    1.2   264      3.2   967.0    0.00      16    65.2
 122    5:10   59.8    19    1.1   271      2.8   967.1    0.00      51    67.0
 122    5:20   58.8    21    0.2   272      1.8   967.2    0.00      83    68.7
 122    5:30   59.5    21    1.7   298      3.7   967.4    0.00     110    70.9
 122    5:40   62.2    18    1.5   317      3.1   967.7    0.00     140    72.4
 122    5:50   62.5    19    3.0   308      5.8   967.9    0.00     173    73.8
 122    6:00   65.1    16    1.7   305      4.5   968.2    0.00     202    76.2
 122    6:10   65.4    16    4.7   310      6.8   968.5    0.00     231    76.2
 122    6:20   66.3    16    3.8   316      5.2   968.7    0.00     274    75.7
 122    6:30   67.7    15    3.6   311      5.3   968.9    0.00     314    76.6
 122    6:40   68.9    14    4.4   326      6.3   969.1    0.00     356    78.2
 122    6:50   69.9    15    5.4   336      8.6   969.1    0.00     400    79.3
 122    7:00   71.1    14    6.0   338      9.2   969.3    0.00     440    80.5
 122    7:10   72.3    14    6.1   345      9.4   969.5    0.00     476    82.3
 122    7:20   72.8    13    7.3   348     10.0   969.6    0.00     484    83.3
 122    7:30   73.7    13    7.1   342      9.5   969.7    0.00     538    84.8
 122    7:40   74.6    13    6.1   352      8.6   969.7    0.00     563    86.8
 122    7:50   75.6    12    5.4   345      8.1   969.8    0.00     569    88.0
 122    8:00   75.9    12    4.9   324      7.2   969.9    0.00     591    89.4
 122    8:10   76.5    11    4.6   318      7.9   970.0    0.00     632    91.7
 122    8:20   77.1    11    4.9   329      8.9   970.1    0.00     673    92.8
 122    8:30   77.8    11    6.0   324      9.9   970.1    0.00     722    93.6
 122    8:40   78.7    11    5.1   320      7.9   970.1    0.00     729    95.4
 122    8:50   79.6    11    3.7   311      6.9   970.1    0.00     784    97.1
 122    9:00   80.8    10    3.2   315      6.2   970.2    0.00     812    99.2
 122    9:10   81.4    10    2.7   313      6.1   970.3    0.00     834    100.2
 122    9:20   82.6     9    2.3   330      6.0   970.3    0.00     873    101.8
 122    9:30   83.6     9    3.0   297      6.9   970.3    0.00     887    103.7
 122    9:40   83.4     9    3.6   306      7.2   970.3    0.00     910    104.5
 122    9:50   84.0     8    4.3   350      9.3   970.3    0.00     914    105.1
 122   10:00   84.1     8    3.5   349      9.4   970.3    0.00     877    103.7
 122   10:10   84.6     8    3.6    56      8.0   970.2    0.00     929    103.8
 122   10:20   85.7     8    3.2    51      6.9   970.0    0.00     952    103.7
 122   10:30   86.5     7    2.9     3      6.3   970.0    0.00     974    103.2
 122   10:40   85.8     7    2.5   189      6.4   969.9    0.00     959    105.3
 122   10:50   85.3     8    3.0   201      6.9   969.6    0.00     970    106.6
 122   11:00   86.5     7    3.7   233      7.5   969.4    0.00    1019    106.9
 122   11:10   87.1     7    5.2   315     10.6   969.2    0.00    1019    104.3
 122   11:20   86.0     6    4.3   209      9.6   969.0    0.00    1003    106.5
 122   11:30   86.6     6    4.2   264     10.7   968.8    0.00     978    105.7
 122   11:40   87.1     6    2.6   286      8.0   968.7    0.00     974    105.3
 122   11:50   87.4     6    4.8   213      9.6   968.6    0.00    1024    107.1
 122   12:00   87.5     6    6.4   189     10.9   968.4    0.00    1025    107.5
 122   12:10   87.9     6    5.9   196     10.6   968.3    0.00    1018    107.5
 122   12:20   87.9     6    5.4   200      8.8   968.2    0.00     991    106.7
 122   12:30   87.8     6    5.7   247     11.4   968.1    0.00     975    102.8
 122   12:40   88.0     6    3.7   232      8.6   967.9    0.00     963    100.9
 122   12:50   88.3     6    4.9   163     12.2   967.7    0.00     966    100.4
 122   13:00   88.2     6    2.3   213     10.1   967.7    0.00     942    98.8
 122   13:10   90.1     6    2.5   130      6.2   967.5    0.00     908    97.8
 122   13:20   88.8     6    4.6   180      9.7   967.4    0.00     832    98.0
 122   13:30   87.9     6    2.8   141      6.8   967.2    0.00     883    97.0
 122   13:40   89.2     6    2.1    64      4.2   967.0    0.00     886    95.8
 122   13:50   89.5     6    4.0   222      7.7   966.9    0.00     815    96.5
 122   14:00   89.7     6    2.5   187      5.4   966.8    0.00     789    96.5
 122   14:10   90.3     6    1.8    74      5.4   966.7    0.00     805    95.8
 122   14:20   90.8     6    2.8    45      7.0   966.5    0.00     812    95.9
 122   14:30   90.9     6    4.2   229      9.0   966.4    0.00     759    96.2
 122   14:40   90.2     6    6.1   215     10.7   966.2    0.00     713    96.4

Return to Overton, Nevada graphs page.


Western Regional Climate Center,wrcc@dri.edu